星链-35776(STARLINK-35776)

导读

STARLINK-35776是美国SpaceX星链星座的一员,于2025年10月31日发射入轨,属于Starlink Gen2系列卫星,承载星链低轨互联网星座组网任务。该卫星运行在近地轨道,依托星链星座规模化部署优势,可为全球范围提供高速低延迟宽带网络服务,覆盖偏远地区、海洋空域等场景,服务民用通信等领域。

基本信息
目录编号:
66282
目录名称:
STARLINK-35776
国际标识:
2025-247T
轨道中心:
EARTH
卫星名称:
星链-35776
卫星全名:
星链-35776(STARLINK-35776)
卫星状态:
在轨 (已飞行308 天)
发射日期:
2025-10-31 UTC
国别 :
美国 (US)
星等 :
--
轨道信息
数据来源 国际轨道数据
星历时间: 2026-09-02T22:03:39+0800
1天前
查看轨道信息
半长轴: 6840.797km
偏心率: 0.000128
轨道倾角: 53.158°
近地点辐角 105.419°
升交点赤经 87.195°
平近点角 254.696°
近地点: 461.784km
远地点: 463.536km
周期: 93.847分钟
每日圈数: 15.344148
详细信息
固有亮度:
5
最大亮度:
2.5
卫星平台:
Starlink V1.0
覆盖范围:
全球
运营商:
太空探索技术公司
运营商所在国:
美国
制造商(研发单位):
太空探索技术公司
制造商所在国:
美国
使用方式:
暂无
卫星简介
Starlink 计划是 SpaceX 推出的全球卫星互联网项目,通过发射低轨道卫星,为全球尤其是偏远地区提供高速、低延迟的互联网服务。自 2019 年起,Starlink 已部署数千颗卫星,旨在缩小全球数字鸿沟,推动互联网普及。该项目还为军事、航空等行业提供通信支持,带来广泛经济效益。
2D轨道图
3D轨道图
轨道高度分析图
轨道倾角分析图
轨道综合分析图
查看轨道综合分析图
交会数据列表
事件ID 空间交会对象 最接近时刻(TCA) 交会距离 交会风险概率(CRP) 交会风险指数(CRI) 操作
CDM_260903-140605-112506-628221
2026-09-03T
14:06:58+0000
2.395 km
极远距离
1.586567E-6 低风险 0.39
CDM_260904-210205-301906-628221
2026-09-04T
21:02:49+0000
2.847 km
极远距离
9.98206E-7 极低风险 0.35
CDM_260827-223205-361906-628221
2026-08-27T
22:32:04+0000
2.746 km
极远距离
9.423646E-7 极低风险 0.34
CDM_260903-030204-942406-628221
2026-09-03T
03:02:14+0000
2.809 km
极远距离
8.722869E-7 极低风险 0.34